TimeMST,TemperatureF,Dew PointF,Humidity,Sea Level PressureIn,VisibilityMPH,Wind Direction,Wind SpeedMPH,Gust SpeedMPH,PrecipitationIn,Events,Conditions,WindDirDegrees,DateUTC
12:53 AM,30.9,9.0,40,30.02,10.0,SW,6.9,-,N/A,,Clear,220,2013-03-06 07:53:00
1:53 AM,36.0,9.0,33,29.99,10.0,SSW,11.5,-,N/A,,Clear,200,2013-03-06 08:53:00
2:53 AM,35.1,9.0,34,29.96,10.0,SSW,16.1,-,N/A,,Clear,210,2013-03-06 09:53:00
3:53 AM,32.0,10.0,40,29.97,10.0,SW,9.2,-,N/A,,Clear,230,2013-03-06 10:53:00
4:53 AM,28.9,10.0,45,29.99,10.0,WNW,6.9,-,N/A,,Clear,300,2013-03-06 11:53:00
5:53 AM,32.0,10.9,42,29.98,10.0,WNW,9.2,-,N/A,,Clear,300,2013-03-06 12:53:00
6:53 AM,32.0,12.0,44,29.98,10.0,WNW,8.1,-,N/A,,Clear,300,2013-03-06 13:53:00
7:53 AM,39.0,12.9,34,29.95,10.0,SW,13.8,19.6,N/A,,Clear,220,2013-03-06 14:53:00
8:53 AM,44.1,12.9,28,29.92,10.0,SW,18.4,29.9,N/A,,Clear,220,2013-03-06 15:53:00
9:53 AM,48.0,12.9,24,29.91,10.0,SSW,23.0,28.8,N/A,,Clear,210,2013-03-06 16:53:00
10:53 AM,50.0,12.9,23,29.90,10.0,SW,21.9,28.8,N/A,,Clear,220,2013-03-06 17:53:00
11:53 AM,53.1,14.0,21,29.82,10.0,SSW,20.7,33.4,N/A,,Clear,210,2013-03-06 18:53:00
12:53 PM,54.0,15.1,22,29.76,10.0,SW,21.9,33.4,N/A,,Clear,220,2013-03-06 19:53:00
1:53 PM,55.0,16.0,22,29.73,10.0,SW,26.5,34.5,N/A,,Clear,230,2013-03-06 20:53:00
2:53 PM,55.0,17.1,23,29.73,10.0,SSW,20.7,29.9,N/A,,Clear,210,2013-03-06 21:53:00
3:53 PM,54.0,18.0,24,29.73,10.0,SSW,23.0,32.2,N/A,,Clear,210,2013-03-06 22:53:00
4:53 PM,52.0,19.0,27,29.74,10.0,SW,19.6,29.9,N/A,,Clear,220,2013-03-06 23:53:00
5:53 PM,48.0,18.0,30,29.75,10.0,SW,18.4,26.5,N/A,,Clear,220,2013-03-07 00:53:00
6:53 PM,44.1,19.0,37,29.78,10.0,SSW,11.5,-,N/A,,Clear,210,2013-03-07 01:53:00
7:53 PM,46.0,19.0,34,29.75,10.0,WSW,16.1,23.0,N/A,,Clear,240,2013-03-07 02:53:00
8:53 PM,45.0,19.0,36,29.74,10.0,WSW,11.5,-,N/A,,Clear,240,2013-03-07 03:53:00
9:53 PM,42.1,19.0,40,29.74,10.0,SW,15.0,-,N/A,,Clear,230,2013-03-07 04:53:00
10:53 PM,37.9,19.0,47,29.75,10.0,West,11.5,-,N/A,,Clear,260,2013-03-07 05:53:00
11:53 PM,37.0,19.9,50,29.74,10.0,WSW,10.4,-,N/A,,Clear,240,2013-03-07 06:53:00